Location: Branson Observatory
(36.6451°N, 93.2213°W)
Time: 12:00:15
(UTC-05:00)

OTV 5 (USA 277) - Visible Passes

Search period start: 19 August 2018 00:00
Search period end: 29 August 2018 00:00
Orbit: 316 x 318 km, 54.5° (Epoch: 18 August)

Date Brightness Start Highest point End Pass type
(mag) Time Alt. Az. Time Alt. Az. Time Alt. Az.
19 Aug ? 21:51:54 10° NW 21:52:50 11° NNW 21:53:44 10° NNW visible
20 Aug ? 20:30:14 10° WSW 20:32:50 41° NW 20:35:27 10° NNE visible
21 Aug ? 20:45:43 10° WNW 20:47:32 16° NW 20:49:23 10° N visible
